This is the latest recevied weather packets stored in our database for station/object ON7XX-13. If no packets are shown the sender has not sent any weather packets the latest 10 day(s).
| Time | Temp. | Humidity | Pressure | Rain* | Wind** | Luminosity | Snow |
|---|---|---|---|---|---|---|---|
| 1777779703 | 16.67° C | 84% | 1011.5 hPa | - | - | - | - |
| 1777779089 | 16.67° C | 85% | 1011.3 hPa | - | - | - | - |
| 1777778475 | 16.67° C | 85% | 1011.5 hPa | - | - | - | - |
| 1777777860 | 16.67° C | 86% | 1011.5 hPa | - | - | - | - |
| 1777777246 | 16.67° C | 87% | 1011.5 hPa | - | - | - | - |
| 1777776632 | 16.67° C | 84% | 1011.5 hPa | - | - | - | - |
| 1777776018 | 16.67° C | 83% | 1011.4 hPa | - | - | - | - |
| 1777775404 | 16.67° C | 83% | 1011.5 hPa | - | - | - | - |
| 1777774789 | 16.67° C | 84% | 1011.7 hPa | - | - | - | - |
| 1777774175 | 16.67° C | 83% | 1011.7 hPa | - | - | - | - |
| 1777773561 | 17.22° C | 83% | 1011.6 hPa | - | - | - | - |
| 1777772947 | 17.22° C | 84% | 1011.7 hPa | - | - | - | - |
| 1777772332 | 17.22° C | 87% | 1011.8 hPa | - | - | - | - |
| 1777771718 | 17.22° C | 88% | 1012 hPa | - | - | - | - |
| 1777771104 | 17.22° C | 86% | 1012 hPa | - | - | - | - |
| 1777770490 | 17.22° C | 84% | 1012.1 hPa | - | - | - | - |
| 1777769876 | 17.22° C | 82% | 1012.1 hPa | - | - | - | - |
| 1777769261 | 17.22° C | 81% | 1012 hPa | - | - | - | - |
| 1777768647 | 17.78° C | 81% | 1012.3 hPa | - | - | - | - |
| 1777768033 | 17.78° C | 80% | 1012.6 hPa | - | - | - | - |
| 1777767419 | 17.78° C | 81% | 1012.7 hPa | - | - | - | - |
| 1777766805 | 17.78° C | 83% | 1012.8 hPa | - | - | - | - |
| 1777766190 | 17.78° C | 83% | 1012.8 hPa | - | - | - | - |
| 1777765576 | 17.78° C | 82% | 1012.8 hPa | - | - | - | - |
| 1777764962 | 17.78° C | 83% | 1013 hPa | - | - | - | - |
* Rain since midnight (hover to see other rain measurements)
** Current wind speed in m/s (hover to see current wind gust speed)